Hourly Data Report for September 24, 2020

GIMLI CLIMATE
MANITOBA
Current Station Operator: ECCC - MSC

50°38'00.000" N
97°03'00.000" W
230.10 m
5031042
71748
PGH

Download Data

Hourly Data (September 2020)
Hourly Data Report for September 24, 2020
TIME Temp Definition
°C
Dew Point Definition
°C
Rel Hum Definition
%
Wind Dir Definition
10's deg

Wind Spd Definition
km/h
Visibility Definition
km
Stn Press Definition
kPa
Hmdx Definition


Wind Chill Definition


Weather Definition


00:00 2.1 1.2 93 31 6   98.91     LegendNANA
01:00 1.8 1.0 94 32 7   98.88     LegendNANA
02:00 1.2 0.4 95 33 8   98.84     LegendNANA
03:00 0.7 0.0 95 3 3   98.76     LegendNANA
04:00 -0.2 -0.9 95 32 3   98.72   -1 LegendNANA
05:00 0.2 -0.5 95 30 1   98.72     LegendNANA
06:00 -1.1 -1.9 94 8 1   98.71   -1 LegendNANA
07:00 0.1 -0.7 94   0   98.66     LegendNANA
08:00 7.4 6.0 91 22 5   98.62     LegendNANA
09:00 11.0 7.3 78 14 11   98.62     LegendNANA
10:00 12.4 7.3 71 12 9   98.53     LegendNANA
11:00 13.2 8.0 70 12 11   98.42     LegendNANA
12:00 14.0 8.7 70 13 14   98.31     LegendNANA
13:00 15.6 8.4 62 15 14   98.23     LegendNANA
14:00 17.2 8.5 57 12 15   98.04     LegendNANA
15:00 18.3 6.3 46 14 21   97.93     LegendNANA
16:00 18.0 8.3 53 15 23   97.85     LegendNANA
17:00 17.4 10.0 62 14 17   97.73     LegendNANA
18:00 16.4 10.9 70 14 15   97.64     LegendNANA
19:00 16.0 11.4 74 14 18   97.54     LegendNANA
20:00 16.0 10.2 68 17 10   97.62     LegendNANA
21:00 16.0 10.3 69 14 14   97.48     LegendNANA
22:00 17.1 11.5 70 16 13   97.41     LegendNANA
23:00 17.7 12.2 70 17 22   97.37     LegendNANA

Notes on Data Quality.

Legend

  • E = Estimated
  • M = Missing
  • NA = Not Available*
  • [empty] = Indicates an unobserved value
Date modified: